TimeCAT,TemperatureF,Dew PointF,Humidity,Sea Level PressureIn,VisibilityMPH,Wind Direction,Wind SpeedMPH,Gust SpeedMPH,PrecipitationIn,Events,Conditions,WindDirDegrees,DateUTC
12:00 AM,73.4,62.6,69,29.92,-9999.0,NE,6.9,-,N/A,,Clear,50,2014-01-08 22:00:00
1:00 AM,73.4,62.6,69,29.92,-9999.0,ENE,8.1,-,N/A,,Clear,70,2014-01-08 23:00:00
3:00 AM,71.6,64.4,78,29.89,-9999.0,East,6.9,-,N/A,,Clear,80,2014-01-09 01:00:00
4:00 AM,71.6,64.4,78,29.92,-9999.0,NE,6.9,-,N/A,,Clear,50,2014-01-09 02:00:00
5:00 AM,69.8,64.4,83,29.92,-9999.0,NE,5.8,-,N/A,,Clear,40,2014-01-09 03:00:00
7:00 AM,73.4,66.2,78,29.98,-9999.0,NE,8.1,-,N/A,,Clear,50,2014-01-09 05:00:00
8:00 AM,75.2,66.2,73,29.98,6.2,NNE,10.4,-,N/A,,Scattered Clouds,30,2014-01-09 06:00:00
9:00 AM,78.8,64.4,61,29.98,6.2,NNE,11.5,-,N/A,,Scattered Clouds,20,2014-01-09 07:00:00
10:00 AM,80.6,64.4,58,29.98,6.2,NNE,10.4,-,N/A,,Scattered Clouds,30,2014-01-09 08:00:00
11:00 AM,84.2,64.4,51,29.95,6.2,NNE,8.1,-,N/A,,Scattered Clouds,20,2014-01-09 09:00:00
12:00 PM,87.8,57.2,35,29.95,6.2,NNE,8.1,-,N/A,,Mostly Cloudy,30,2014-01-09 10:00:00
1:00 PM,89.6,57.2,33,29.89,6.2,Variable,2.3,-,N/A,,Mostly Cloudy,0,2014-01-09 11:00:00
2:00 PM,89.6,53.6,29,29.89,6.2,Variable,5.8,-,N/A,,Mostly Cloudy,0,2014-01-09 12:00:00
3:00 PM,91.4,55.4,29,29.86,6.2,NNE,9.2,-,N/A,,Partly Cloudy,20,2014-01-09 13:00:00
4:00 PM,87.8,57.2,35,29.83,6.2,NE,16.1,-,N/A,,Partly Cloudy,50,2014-01-09 14:00:00
5:00 PM,87.8,55.4,33,29.83,6.2,NE,12.7,-,N/A,,Partly Cloudy,50,2014-01-09 15:00:00
6:00 PM,86.0,60.8,43,29.83,6.2,NNE,10.4,-,N/A,,Scattered Clouds,30,2014-01-09 16:00:00
7:00 PM,82.4,60.8,48,29.83,6.2,NNE,13.8,-,N/A,,Scattered Clouds,20,2014-01-09 17:00:00
8:00 PM,78.8,59.0,51,29.86,6.2,North,4.6,-,N/A,,Partly Cloudy,10,2014-01-09 18:00:00
9:00 PM,75.2,60.8,61,29.86,-9999.0,SE,9.2,-,N/A,,Clear,130,2014-01-09 19:00:00
10:00 PM,73.4,60.8,65,29.89,-9999.0,ESE,8.1,-,N/A,,Clear,120,2014-01-09 20:00:00
11:00 PM,73.4,60.8,65,29.89,6.2,NE,5.8,-,N/A,,Partly Cloudy,50,2014-01-09 21:00:00